Flag for U.S.A. Weather past 2 weeks in Stamford, Connecticut, U.S.A.

Now
34 °F

Light rain. Fog.


Feels Like: 31 °F
Forecast: 33 / 39 °F
Wind: 3 mph from West

Location: Westchester County Airport

Current Time: Mar 4, 2015 at 6:59:49 AM

Latest Report: Mar 4, 2015 at 5:56 AM


Visibility: 3 mi

Pressure: 29.79 "Hg

Humidity: 92%

Dew point: 32 °F

Location of StamfordLocation

Historic Weather in Stamford — Graph

°F

Stamford temperature yesterday

Maximum temperature yesterday: 34 °F (at 11:56 PM)
Minimum temperature yesterday: 10 °F (at 5:56 AM)
Average temperature yesterday: 23 °F

Past Weeks' High & Low Weather Summary

 TemperatureHumidityPressure
High38 °F (Feb 22, 12:56 PM)96% (Mar 1, 8:56 PM)30.81 "Hg (Mar 1, 8:56 PM)
Low-4 °F (Feb 24, 5:56 AM)31% (Feb 23, 1:56 PM)29.69 "Hg (Feb 19, 1:56 AM)
Average19 °F60%30.18 "Hg
* Reported Feb 17 5:56 AM — Mar 4 5:56 AM, Stamford, Weather by CustomWeather, © 2015

Note: Actual official high and low records may vary slightly from our data, if they occured in-between our weather recording intervals... More about our weather records

Advertising

Stamford weather history for previous 24 hours

 ConditionsComfort  
Time TempWeatherWind HumidityBarometerVisibility
5:56 AM
Wed, Mar 4
34 °FLight rain. Fog.3 mph92%29.79 "Hg3 mi
4:56 AM34 °FLight rain. Fog.7 mph92%29.78 "Hg5 mi
3:56 AM34 °FFog.No wind92%29.73 "Hg5 mi
2:56 AM34 °FFog.No wind92%29.75 "Hg6 mi
1:56 AM34 °FLow clouds.5 mph92%29.78 "Hg7 mi
12:56 AM34 °FLow clouds.5 mph88%29.80 "Hg8 mi
11:56 PM
Tue, Mar 3
34 °FFog.3 mph92%29.82 "Hg6 mi
10:56 PM33 °FLight rain. Fog.7 mph96%29.88 "Hg1 mi
9:56 PM32 °FLight rain. Ice fog.8 mph96%29.94 "Hg1 mi
9:04 PM32 °FRain. Ice fog.8 mph93%29.95 "Hg1 mi
8:56 PM31 °FLight freezing rain. Ice fog.8 mph96%29.98 "Hg1 mi
7:56 PM26 °FLight rain. Ice fog.No wind96%30.06 "Hg1 mi
6:56 PM25 °FFreezing rain. Ice fog.6 mph92%30.10 "Hg1 mi
5:56 PM24 °FSnow. Ice fog.10 mph91%30.15 "Hg1 mi
4:56 PM24 °FSnow. Ice fog.10 mph91%30.18 "Hg1 mi
3:56 PM26 °FLight snow. Low clouds.12 mph71%30.24 "Hg1 mi
2:56 PM26 °FPartly sunny.10 mph50%30.28 "Hg10 mi
1:56 PM27 °FPartly sunny.8 mph46%30.31 "Hg10 mi
12:56 PM26 °FPartly sunny.6 mph40%30.35 "Hg10 mi
11:56 AM26 °FSunny.6 mph46%30.38 "Hg10 mi
10:56 AM25 °FSunny.5 mph48%30.41 "Hg10 mi
9:56 AM25 °FSunny.5 mph48%30.42 "Hg10 mi
8:56 AM22 °FSunny.No wind57%30.45 "Hg10 mi
7:56 AM19 °FSunny.3 mph62%30.43 "Hg10 mi
6:56 AM10 °FSunny.5 mph80%30.44 "Hg9 mi
Weather by CustomWeather, © 2015

See weather overviewHow to use our weather pages